Find Starlink 31984

NORAD ID: 60018 Int'l Des: 2024-111 Owner: SPXS Country: US Constellation: starlink operational
LEOCIRCULAR

Live Position

Loading 3D Globe...

About Starlink 31984

Description loading...

Upcoming Passes

Passes for default location (London). Set your location on the main map for personalized predictions.

Altitude History

Loading altitude history...

Two-Line Element Set

1 60018U 24111C 26126.57544178 .00000019 00000-0 12772-4 0 9995
2 60018 53.1591 166.9219 0001205 84.6359 275.4779 15.30182557107745
Epoch: May 6, 2026 • Age: 18 hours

Current Status

Altitude 490.6 km
Velocity 7.62 km/s
Sub-Earth Point -43.59°S, 41.95°E
Launch Date Jun 8, 2024
Age 1.9 years
Type internet

Technical Details

Classification Payload
Mass 730.00 kg
Dry Mass 700.00 kg
Total Mass 730.00 kg
Length 0.30 m
Diameter 4.10 m
Span 29.00 m
Shape Box + pan
Manufacturer SPXS
Bus Type Starlink V2M
Phase Status In Orbit
Owner/State SPXS/US

Most Searched